Regional Weather Roundup
Issued by NWS New Orleans/Baton Rouge, LA

Home | Current Version | Previous Version | Text Only | Print | Product List | Glossary Off
Versions: 1 2 3 4 5 6 7 8 9 10 11 12 13 14 15 16 17 18 19 20 21 22 23 24 25 26 27 28 29 30 31 32 33 34 35 36 37 38 39 40 41 42 43 44 45 46 47 48 49 50

131
ASUS44 KLIX 191510
RWRLIX
NEW ORLEANS REGIONAL WEATHER ROUNDUP
NATIONAL WEATHER SERVICE NEW ORLEANS LA
1000 AM CDT SAT APR 19 2014

NOTE: "FAIR" INDICATES FEW OR NO CLOUDS BELOW 12,000 FEET WITH NO
      SIGNIFICANT WEATHER AND/OR OBSTRUCTIONS TO VISIBILITY.
      SKY/WX - SKY CONDITION AND SIGNIFICANT WEATHER.
      TMP - AIR TEMPERATURE.     DP    - DEWPOINT TEMPERATURE.
      RH  - RELATIVE HUMIDITY.   PRES  - PRESSURE.
      HI  - HEAT INDEX.          WCI   - WIND CHILL INDEX.

*  THESE STATIONS ARE NOT NWS OR FAA STATIONS AND ARE NOT UNDER
   NWS QUALITY CONTROL.

LAZ038-040-048-061>063-065>067-069-191600-
SOUTHEAST LOUISIANA

CITY           SKY/WX    TMP DP  RH WIND       PRES   REMARKS
N.O. AUDUBON     N/A     70  52  52 MISG        N/A
N.O. INTL ARPT MOSUNNY   66  54  65 VRB7      30.18R
N.O. LAKEFRONT SUNNY     64  53  67 NE7       30.18R
N.O. DOWNTOWN*   N/A     66  48  52 NE6       30.18R
SLIDELL        SUNNY     67  50  54 N9        30.16R
BATON ROUGE    SUNNY     68  52  56 E3        30.20R
BOOTHVILLE     SUNNY     62  56  80 N10       30.16R
BELLE CHASSE   MOSUNNY   67  50  54 NE10      30.17R
BOGALUSA*        N/A     67  52  56 NE7       30.17S
GALLIANO*      SUNNY     68  55  64 N6        30.17R
NEW ROADS*       N/A     64  54  71 N3        30.20S
GONZALES*        N/A     66  52  60 CALM      30.18S
HAMMOND*       SUNNY     70  50  49 N7        30.19R
HOUMA*         SUNNY     64  54  68 N5        30.17S
PORT FOURCHON* SUNNY     64  55  72 N8        30.18S

$$

MSZ070-080>082-191600-
SOUTHERN MISSISSIPPI

CITY           SKY/WX    TMP DP  RH WIND       PRES   REMARKS
MCCOMB         SUNNY     67  49  52 N9        30.18R
GULFPORT       SUNNY     69  49  48 N12       30.14S
BILOXI         SUNNY     66  51  57 N9        30.14S
PASCAGOULA     SUNNY     65  51  60 N15       30.14R

$$

COASTAL OBSERVATIONS
LAKE AND NEARSHORE STATIONS

STATION/POSITION TIME  TEMP    WIND        PRES    WAVE
                       AIR SEA DIR/SP/G            HT/PER
                 (UTC) (F)     (DEG/KT/KT) (MB)    (FT/S)
PASCAGOULA       1500   63      10/ 14/ 17 1019.7
WAVELAND YACHT   1500   62 65   10/ 12/ 14 1019.9
GRAND ISLE       1500   63 66   20/  7/ 10 1021.7
SOUTHWEST PASS   1500   63 58  360/ 11/ 13 1021.1
NEW CANAL        1500   61 64   10/  3/  5 1022.1
SHELL BEACH      1500   60 61   20/ 10/ 12 1021.1

OFFSHORE STATIONS

STATION/POSITION TIME  TEMP    WIND        PRES    WAVE
                       AIR SEA DIR/SP/G            HT/PER
                 (UTC) (F)     (DEG/KT/KT) (MB)    (FT/S)
64 S DAUPHIN ISL 1407   61 70   10/ 21/ 23 1019.4

$$




USA.gov is the U.S. government's official web portal to all federal, state and local government web resources and services.